Cairns, Australia

3:30 PM AEST on March 28, 2017 (GMT +1000)
Cairns International

Weather History for YBCS - November, 2014

Change the Weather History Date:

Thursday, November 6, 2014

  Actual Average Record
Temperature  
Mean Temperature 78 °F -  
Max Temperature 87 °F 87 °F 89 °F (2008)
Min Temperature 70 °F 72 °F 68 °F (2006)
Cooling Degree Days 14    
Growing Degree Days 28 (Base 50)    
Moisture  
Dew Point 68 °F    
Average Humidity 68    
Maximum Humidity 88    
Minimum Humidity 39    
Precipitation  
Precipitation 0.01 in 0.16 in - ()
Sea Level Pressure  
Sea Level Pressure 29.92 in    
Wind  
Wind Speed 8 mph ()    
Max Wind Speed 17 mph    
Max Gust Speed -    
Visibility 6.9 miles    
Events Rain    
Averages and records for this station are not official NWS values.
T = Trace of Precipitation, MM = Missing Value Source: Averaged Metar Reports

Daily Weather History Graph

Daily Weather History Graph

Search for Another Location

Airport or City:

Trip Planner

Search our weather history database for the weather conditions in past years. The results will help you decide how hot, cold, wet, or windy it might be!

Date:

Astronomy

Nov. 06, 2014 Rise Set
Actual Time 5:37 AM AEST 6:24 PM AEST
Civil Twilight 5:14 AM AEST 6:46 PM AEST
Nautical Twilight 4:47 AM AEST 7:13 PM AEST
Astronomical Twilight 4:20 AM AEST 7:40 PM AEST
Moon 5:46 PM AEST (11/6) 4:50 AM AEST (11/6)
Length of Visible Light 13h 32m
Length of Day
12h 46m
Waxing Gibbous, 99% of the Moon is Illuminated
Nov 6
Waxing Gibbous
Nov 7
Full
Nov 15
Last Quarter
Nov 22
New
Nov 29
First Quarter

Hourly Weather History & Observations

Time (AEST) Temp. Heat Index Dew Point Humidity Pressure Visibility Wind Dir Wind Speed Gust Speed Precip Events Conditions
12:00 AM 75 °F - 67 °F 69% 29.94 in - South 8.1 mph - -   Overcast
12:00 AM 75.2 °F - 66.2 °F 73% 29.95 in 6.2 mi South 8.1 mph - N/A   Partly Cloudy
12:30 AM 75.2 °F - 66.2 °F 73% 29.92 in 6.2 mi SSE 6.9 mph - N/A   Scattered Clouds
1:00 AM 74 °F - 67 °F 74% 29.92 in - ESE 9.2 mph - -  
1:00 AM 73.4 °F - 68.0 °F 83% 29.92 in 6.2 mi ESE 9.2 mph - N/A Rain Light Rain Showers
1:30 AM 73.4 °F - 68.0 °F 83% 29.89 in 6.2 mi South 5.8 mph - N/A   Partly Cloudy
2:00 AM 71.6 °F - 68.0 °F 88% 29.89 in 6.2 mi SE 3.5 mph - N/A   Scattered Clouds
2:30 AM 71.6 °F - 68.0 °F 88% 29.86 in 6.2 mi NE 3.5 mph - N/A   Scattered Clouds
3:00 AM 71 °F - 67 °F 84% 29.88 in - SSE 4.6 mph - -  
3:00 AM 71.6 °F - 68.0 °F 88% 29.89 in 6.2 mi SSE 4.6 mph - N/A   Scattered Clouds
3:30 AM 71.6 °F - 66.2 °F 83% 29.89 in 6.2 mi SSE 5.8 mph - N/A   Mostly Cloudy
4:00 AM 72 °F - 66 °F 77% 29.90 in - South 4.6 mph - -  
4:00 AM 71.6 °F - 66.2 °F 83% 29.89 in 6.2 mi South 4.6 mph - N/A   Mostly Cloudy
4:30 AM 71.6 °F - 66.2 °F 83% 29.89 in 6.2 mi SSW 2.3 mph - N/A Rain Light Rain Showers
5:00 AM 73.4 °F - 66.2 °F 78% 29.92 in 6.2 mi SSE 10.4 mph - N/A Rain Light Rain Showers
5:30 AM 71.6 °F - 68.0 °F 88% 29.92 in 6.2 mi South 4.6 mph - N/A   Mostly Cloudy
6:00 AM 73 °F - 67 °F 77% 29.92 in 16 mi SSE 8.1 mph - -   Scattered Clouds
6:00 AM 73.4 °F - 68.0 °F 83% 29.92 in 6.2 mi SSE 8.1 mph - N/A   Mostly Cloudy
6:30 AM 75.2 °F - 68.0 °F 78% 29.92 in 6.2 mi South 6.9 mph - N/A   Mostly Cloudy
7:00 AM 74 °F - 68 °F 76% 29.96 in - SSE 4.6 mph - -  
7:00 AM 75.2 °F - 68.0 °F 78% 29.95 in 6.2 mi SSE 4.6 mph - N/A   Mostly Cloudy
7:30 AM 75.2 °F - 68.0 °F 78% 29.95 in 6.2 mi SE 10.4 mph - N/A   Mostly Cloudy
8:00 AM 78.8 °F - 66.2 °F 65% 29.98 in 6.2 mi South 9.2 mph - N/A   Mostly Cloudy
8:30 AM 78.8 °F - 68.0 °F 69% 29.98 in 6.2 mi South 8.1 mph - N/A   Mostly Cloudy
9:00 AM 80 °F - 68 °F 59% 29.99 in 19 mi SSE 8.1 mph - -   Partly Cloudy
9:00 AM 80.6 °F 83.2 °F 68.0 °F 65% 29.98 in 6.2 mi SSE 8.1 mph - N/A   Mostly Cloudy
9:30 AM 82.4 °F 85.4 °F 68.0 °F 62% 29.98 in 6.2 mi South 9.2 mph - N/A   Mostly Cloudy
10:00 AM 82 °F - 67 °F 52% 30.00 in - SE 8.1 mph - -  
10:00 AM 82.4 °F 85.4 °F 68.0 °F 62% 29.98 in 6.2 mi SE 8.1 mph - N/A   Mostly Cloudy
10:30 AM 82.4 °F 86.3 °F 69.8 °F 66% 29.98 in 6.2 mi East 6.9 mph - N/A   Scattered Clouds
11:00 AM 82.4 °F 84.6 °F 66.2 °F 58% 29.98 in 6.2 mi East 9.2 mph - N/A   Mostly Cloudy
11:30 AM 84.2 °F 86.6 °F 66.2 °F 55% 29.95 in 6.2 mi East 8.1 mph - N/A   Scattered Clouds
12:00 PM 85 °F - 64 °F 39% 29.95 in 19 mi SE 9.2 mph - -   Partly Cloudy
12:00 PM 86.0 °F 87.3 °F 64.4 °F 48% 29.95 in 6.2 mi SE 9.2 mph - N/A   Scattered Clouds
12:30 PM 87.8 °F 90.4 °F 66.2 °F 49% 29.92 in 6.2 mi ENE 15.0 mph - N/A   Partly Cloudy
1:00 PM 86 °F - 66 °F 41% 29.93 in - NE 15.0 mph - -  
1:00 PM 86.0 °F 88.2 °F 66.2 °F 51% 29.92 in 6.2 mi NE 15.0 mph - N/A   Partly Cloudy
1:30 PM 87.8 °F 91.4 °F 68.0 °F 52% 29.89 in 6.2 mi NE 13.8 mph - N/A   Scattered Clouds
2:00 PM 87.8 °F 90.4 °F 66.2 °F 49% 29.89 in 6.2 mi NE 15.0 mph - N/A   Mostly Cloudy
2:30 PM 87.8 °F 90.4 °F 66.2 °F 49% 29.86 in 6.2 mi ENE 17.3 mph - N/A   Mostly Cloudy
3:00 PM 86 °F - 66 °F 42% 29.87 in 25 mi East 16.1 mph - -   Partly Cloudy
3:00 PM 86.0 °F 88.2 °F 66.2 °F 51% 29.86 in 6.2 mi East 16.1 mph - N/A   Mostly Cloudy
3:30 PM 86.0 °F 88.2 °F 66.2 °F 51% 29.86 in 6.2 mi ENE 15.0 mph - N/A   Mostly Cloudy
4:00 PM 85 °F - 66 °F 44% 29.87 in - ENE 13.8 mph - -  
4:00 PM 86.0 °F 88.2 °F 66.2 °F 51% 29.86 in 6.2 mi ENE 13.8 mph - N/A   Mostly Cloudy
4:30 PM 84.2 °F 87.3 °F 68.0 °F 58% 29.86 in 6.2 mi ESE 11.5 mph - N/A   Mostly Cloudy
5:00 PM 84.2 °F 87.3 °F 68.0 °F 58% 29.86 in 6.2 mi ESE 12.7 mph - N/A   Mostly Cloudy
5:30 PM 82.4 °F 85.4 °F 68.0 °F 62% 29.89 in 6.2 mi SE 13.8 mph - N/A   Mostly Cloudy
6:00 PM 80 °F - 69 °F 60% 29.90 in - SE 12.7 mph - -  
6:00 PM 80.6 °F 83.2 °F 68.0 °F 65% 29.89 in 6.2 mi SE 12.7 mph - N/A   Mostly Cloudy
6:30 PM 80.6 °F 83.9 °F 69.8 °F 70% 29.89 in 6.2 mi ESE 11.5 mph - N/A   Mostly Cloudy
7:00 PM 78 °F - 69 °F 66% 29.92 in - SE 13.8 mph - -  
7:00 PM 78.8 °F - 68.0 °F 69% 29.92 in 6.2 mi SE 13.8 mph - N/A   Mostly Cloudy
7:30 PM 78.8 °F - 68.0 °F 69% 29.92 in 6.2 mi SE 12.7 mph - N/A   Mostly Cloudy
8:00 PM 78.8 °F - 69.8 °F 74% 29.92 in 6.2 mi SE 12.7 mph - N/A   Mostly Cloudy
8:30 PM 77.0 °F - 69.8 °F 78% 29.95 in 6.2 mi SSE 6.9 mph - N/A   Scattered Clouds
9:00 PM 76 °F - 69 °F 75% 29.95 in - SSE 8.1 mph - -  
9:00 PM 77.0 °F - 69.8 °F 78% 29.95 in 6.2 mi SSE 8.1 mph - N/A   Mostly Cloudy
9:30 PM 75.2 °F - 69.8 °F 83% 29.95 in 6.2 mi South 6.9 mph - N/A   Mostly Cloudy
10:00 PM 75 °F - 69 °F 77% 29.97 in - South 5.8 mph - -  
10:00 PM 75.2 °F - 69.8 °F 83% 29.95 in 6.2 mi South 5.8 mph - N/A   Mostly Cloudy
10:30 PM 75.2 °F - 69.8 °F 83% 29.95 in 6.2 mi South 8.1 mph - N/A   Mostly Cloudy
11:00 PM 75.2 °F - 69.8 °F 83% 29.95 in 6.2 mi South 8.1 mph - N/A   Mostly Cloudy
11:30 PM 75.2 °F - 68.0 °F 78% 29.95 in 6.2 mi South 6.9 mph - N/A   Mostly Cloudy